Weather in Kurmanaevka

Russia / Orenburg Oblast     52°30′34″N   52°04′02″E
temp.,
°C
wind,
m/s
gust,
m/s
humid.,
%
clouds,
%
prec.,
mm/h
press.,
hPa
HPBL,
m
25 february, thu
thu2523:00−25nnw613920 0.0 1033266
02:00−28nnw46950 0.0 103477
05:00−28nw34940 0.0 103540
08:00−29nw23941 0.0 103521
11:00−25wsw11881 0.0 103535
14:00−21ssw348777 0.0 1034232
17:00−20s589089 0.0 1032281
20:00−20s61195100 0.1 1029394
26 february, fri
fri2623:00−18s71396100 1.1 1026519
02:00−17s81395100 1.2 1023595
05:00−15sse71295100 2.3 1021621
08:00−14sse61195100 0.7 1019557
11:00−13sse71193100 1.2 1019561
14:00−12sse61092100 0.3 1018543
17:00−11se5992100 0.4 1018510
20:00−12se5109398 0.1 1016331
27 february, sat
sat2723:00−11sse6119499 0.2 1013340
02:00−9sse81494100 0.8 1008401
05:00−6s81595100 4.8 1004450
08:000s5899100 2.4 1001230
11:00+1w49100100 2.7 1001367
14:00+1wsw48100100 0.1 1001422
17:000wsw59100100 0.1 1001467
20:000sw4898100 0.2 1002378
28 february, sun
sun2823:00−1sw4897100 0.4 1002249
02:00−1sw4798100 0.3 1001344
05:00−1sw3697100 0.5 1002258
08:00−2wsw51096100 0.3 1001399
11:00−7nnw4695100 0.8 1002232
14:00−8nw5793100 0.4 1004399
17:00−11nw6990100 0.6 1007492
20:00−14nw4994100 0.0 1009272
1 march, mon
mon123:00−17nw489590 0.1 1012179
02:00−18nw479647 0.0 1014154
05:00−18nw369663 0.1 1015157
08:00−17nw479580 0.1 1017227
11:00−16nw469478 0.1 1018263
14:00−14nw469295 0.0 1019342
17:00−14nw579298 0.1 1021400
20:00−16nw499592 0.1 1022212